Location: Unspecified
(0.0000°N, 0.0000°E)
Time: 21:33:36
(UTC+00:00)

N. Korean satellite - Pass Details

Date: 22 February 2020
Orbit: 456 x 505 km, 97.2° (Epoch: 25 February)

Event Time Altitude Azimuth Distance (km) Brightness Sun altitude
Rises 04:53:38 0° 29° (NNE) 2,572 10.5 -19.6°
Reaches altitude 10° 04:55:55 10° 41° (NE) 1,686 9.7 -19.1°
Maximum altitude 04:59:03 28° 101° (E) 958 8.8 -18.3°
Drops below altitude 10° 05:02:10 10° 161° (SSE) 1,672 9.7 -17.6°
Sets 05:04:25 0° 173° (S) 2,545 10.5 -17.0°
